• In Switzerland
  • List of Countries
  • For 7 days
  • Water Temperature
  • Satellite Maps
  • Weather Map
  • Weather Widgets
  • user-avatar
    Login

    Hourly Weather Malaya Malinovka

    Today, 26 September, Wednesday

    Time Temperature Precipitation Wind Pressure Humidity
    00:00 +3°C° 0 mm 4 mps 755 mmHg 77%
    01:00 +3°C° 0 mm 4 mps 755 mmHg 79%
    02:00 +3°C° 0 mm 4 mps 756 mmHg 82%
    03:00 +1°C° 0 mm 4 mps 756 mmHg 84%
    04:00 +2°C° 0 mm 3 mps 756 mmHg 86%
    05:00 +2°C° 0 mm 3 mps 757 mmHg 88%
    06:00 +3°C° 0 mm 3 mps 757 mmHg 84%
    07:00 +3°C° 0 mm 4 mps 757 mmHg 79%
    08:00 +4°C° 0 mm 4 mps 757 mmHg 75%
    09:00 +6°C° 0 mm 4 mps 757 mmHg 68%
    10:00 +8°C° 0 mm 5 mps 757 mmHg 62%
    11:00 +9°C° 0 mm 5 mps 757 mmHg 55%
    12:00 +10°C° 0 mm 6 mps 756 mmHg 53%
    13:00 +10°C° 0 mm 6 mps 756 mmHg 51%
    14:00 +11°C° 0 mm 6 mps 755 mmHg 49%
    15:00 +10°C° 0 mm 6 mps 754 mmHg 53%
    16:00 +9°C° 0 mm 6 mps 754 mmHg 57%
    17:00 +9°C° 0 mm 5 mps 753 mmHg 61%
    18:00 +8°C° 0.2 mm 6 mps 753 mmHg 65%
    19:00 +7°C° 0.2 mm 6 mps 752 mmHg 69%
    20:00 +6°C° 0.2 mm 7 mps 752 mmHg 73%
    21:00 +6°C° 0.3 mm 7 mps 751 mmHg 77%
    22:00 +5°C° 0.3 mm 8 mps 750 mmHg 80%
    23:00 +5°C° 0.3 mm 8 mps 750 mmHg 83%

    Tomorrow, 27 September, Thursday

    Time Temperature Precipitation Wind Pressure Humidity
    00:00 +5°C° 0.3 mm 8 mps 749 mmHg 84%
    01:00 +5°C° 0.3 mm 9 mps 748 mmHg 86%
    02:00 +5°C° 0.3 mm 9 mps 747 mmHg 87%
    03:00 +6°C° 0.5 mm 9 mps 747 mmHg 88%
    04:00 +6°C° 0.5 mm 8 mps 746 mmHg 88%
    05:00 +6°C° 0.5 mm 8 mps 745 mmHg 88%
    06:00 +7°C° 0.2 mm 8 mps 745 mmHg 89%
    07:00 +7°C° 0.2 mm 8 mps 745 mmHg 89%
    08:00 +9°C° 0.2 mm 7 mps 745 mmHg 89%
    09:00 +10°C° 0.1 mm 7 mps 745 mmHg 87%
    10:00 +11°C° 0.1 mm 7 mps 745 mmHg 86%
    11:00 +12°C° 0.1 mm 7 mps 746 mmHg 84%
    12:00 +14°C° 0.1 mm 7 mps 746 mmHg 79%
    13:00 +14°C° 0.1 mm 7 mps 746 mmHg 75%
    14:00 +15°C° 0.1 mm 7 mps 746 mmHg 71%
    15:00 +15°C° 0 mm 6 mps 746 mmHg 72%
    16:00 +14°C° 0 mm 5 mps 746 mmHg 73%
    17:00 +14°C° 0 mm 4 mps 746 mmHg 74%
    18:00 +13°C° 0 mm 4 mps 747 mmHg 77%
    19:00 +12°C° 0 mm 4 mps 747 mmHg 81%
    20:00 +10°C° 0 mm 4 mps 747 mmHg 84%
    21:00 +11°C° 0 mm 4 mps 747 mmHg 86%
    22:00 +11°C° 0 mm 4 mps 746 mmHg 88%
    23:00 +10°C° 0 mm 5 mps 746 mmHg 90%

    Day after tomorrow, 28 September, Friday

    Time Temperature Precipitation Wind Pressure Humidity
    00:00 +10°C° 0 mm 5 mps 745 mmHg 90%
    01:00 +11°C° 0 mm 6 mps 745 mmHg 90%
    02:00 +13°C° 0 mm 6 mps 745 mmHg 89%
    03:00 +13°C° 0 mm 6 mps 744 mmHg 89%
    04:00 +13°C° 0 mm 6 mps 743 mmHg 89%
    05:00 +12°C° 0 mm 7 mps 743 mmHg 89%
    06:00 +12°C° 0 mm 7 mps 742 mmHg 88%
    07:00 +12°C° 0 mm 7 mps 742 mmHg 87%
    08:00 +12°C° 0 mm 7 mps 741 mmHg 86%
    09:00 +14°C° 0.2 mm 7 mps 741 mmHg 85%
    10:00 +14°C° 0.2 mm 7 mps 742 mmHg 85%
    11:00 +14°C° 0.2 mm 6 mps 742 mmHg 85%
    12:00 +14°C° 0.5 mm 6 mps 742 mmHg 84%
    13:00 +13°C° 0.5 mm 5 mps 742 mmHg 83%
    14:00 +13°C° 0.5 mm 4 mps 742 mmHg 82%
    15:00 +13°C° 0.1 mm 4 mps 743 mmHg 80%
    16:00 +12°C° 0.1 mm 3 mps 743 mmHg 79%
    17:00 +12°C° 0.1 mm 3 mps 743 mmHg 77%
    18:00 +11°C° 0 mm 3 mps 744 mmHg 80%
    19:00 +10°C° 0 mm 2 mps 744 mmHg 83%
    20:00 +9°C° 0 mm 2 mps 745 mmHg 86%
    21:00 +8°C° 0 mm 2 mps 745 mmHg 88%
    22:00 +8°C° 0 mm 2 mps 745 mmHg 89%
    23:00 +7°C° 0 mm 2 mps 746 mmHg 90%

    29 September, Saturday

    Time Temperature Precipitation Wind Pressure Humidity
    00:00 +7°C° 0 mm 2 mps 746 mmHg 91%
    01:00 +7°C° 0 mm 2 mps 746 mmHg 91%
    02:00 +6°C° 0 mm 2 mps 747 mmHg 92%
    03:00 +6°C° 0 mm 2 mps 747 mmHg 92%
    04:00 +6°C° 0 mm 2 mps 747 mmHg 92%
    05:00 +6°C° 0 mm 2 mps 748 mmHg 92%
    06:00 +6°C° 0 mm 2 mps 748 mmHg 90%
    07:00 +7°C° 0 mm 2 mps 749 mmHg 88%
    08:00 +7°C° 0 mm 3 mps 749 mmHg 86%
    09:00 +8°C° 0 mm 3 mps 750 mmHg 80%
    10:00 +9°C° 0 mm 3 mps 750 mmHg 74%
    11:00 +11°C° 0 mm 3 mps 751 mmHg 69%
    12:00 +11°C° 0.1 mm 3 mps 751 mmHg 66%
    13:00 +11°C° 0.1 mm 3 mps 751 mmHg 63%
    14:00 +12°C° 0.1 mm 3 mps 751 mmHg 60%
    15:00 +11°C° 0 mm 3 mps 752 mmHg 61%
    16:00 +10°C° 0 mm 3 mps 752 mmHg 63%
    17:00 +10°C° 0 mm 2 mps 752 mmHg 64%
    18:00 +8°C° 0 mm 2 mps 753 mmHg 66%
    19:00 +7°C° 0 mm 2 mps 753 mmHg 68%
    20:00 +6°C° 0 mm 2 mps 754 mmHg 69%
    21:00 +5°C° 0 mm 2 mps 754 mmHg 70%
    22:00 +5°C° 0 mm 2 mps 754 mmHg 70%
    23:00 +4°C° 0 mm 2 mps 755 mmHg 70%

    30 September, Sunday

    Time Temperature Precipitation Wind Pressure Humidity
    00:00 +4°C° 0 mm 2 mps 755 mmHg 71%
    01:00 +5°C° 0 mm 1 mps 755 mmHg 71%
    02:00 +4°C° 0 mm 1 mps 755 mmHg 72%
    03:00 +4°C° 0 mm 1 mps 755 mmHg 73%
    04:00 +4°C° 0 mm 1 mps 755 mmHg 74%
    05:00 +4°C° 0 mm 1 mps 755 mmHg 75%
    06:00 +4°C° 0 mm 1 mps 755 mmHg 73%
    07:00 +5°C° 0 mm 1 mps 755 mmHg 71%
    08:00 +5°C° 0 mm 2 mps 755 mmHg 69%
    09:00 +7°C° 0 mm 2 mps 755 mmHg 65%
    10:00 +9°C° 0 mm 2 mps 755 mmHg 61%
    11:00 +12°C° 0 mm 2 mps 755 mmHg 57%
    12:00 +12°C° 0 mm 2 mps 754 mmHg 56%
    13:00 +13°C° 0 mm 2 mps 754 mmHg 55%
    14:00 +13°C° 0 mm 3 mps 753 mmHg 54%
    15:00 +13°C° 0 mm 2 mps 753 mmHg 58%
    16:00 +12°C° 0 mm 2 mps 752 mmHg 62%
    17:00 +12°C° 0 mm 1 mps 752 mmHg 66%
    18:00 +11°C° 0 mm 1 mps 752 mmHg 69%
    19:00 +9°C° 0 mm 1 mps 752 mmHg 72%
    20:00 +7°C° 0 mm 2 mps 752 mmHg 75%
    21:00 +7°C° 0 mm 2 mps 752 mmHg 76%
    22:00 +8°C° 0 mm 1 mps 752 mmHg 77%
    23:00 +7°C° 0 mm 1 mps 751 mmHg 78%

    1 October, Monday

    Time Temperature Precipitation Wind Pressure Humidity
    00:00 +7°C° 0 mm 1 mps 751 mmHg 78%
    01:00 +7°C° 0 mm 1 mps 751 mmHg 78%
    02:00 +7°C° 0 mm 1 mps 751 mmHg 77%
    03:00 +8°C° 0 mm 1 mps 750 mmHg 77%
    04:00 +8°C° 0 mm 1 mps 750 mmHg 77%
    05:00 +8°C° 0 mm 1 mps 750 mmHg 76%
    06:00 +7°C° 0 mm 2 mps 750 mmHg 76%
    07:00 +8°C° 0 mm 2 mps 749 mmHg 75%
    08:00 +8°C° 0 mm 2 mps 749 mmHg 75%
    09:00 +9°C° 0 mm 2 mps 749 mmHg 75%
    10:00 +9°C° 0 mm 2 mps 749 mmHg 76%
    11:00 +10°C° 0 mm 2 mps 749 mmHg 76%
    12:00 +10°C° 0.2 mm 2 mps 748 mmHg 78%
    13:00 +10°C° 0.2 mm 2 mps 748 mmHg 80%
    14:00 +9°C° 0.2 mm 2 mps 747 mmHg 82%
    15:00 +9°C° 0.4 mm 2 mps 747 mmHg 84%
    16:00 +10°C° 0.4 mm 1 mps 747 mmHg 85%
    17:00 +10°C° 0.4 mm 1 mps 746 mmHg 86%
    18:00 +10°C° 0.3 mm 1 mps 746 mmHg 87%
    19:00 +10°C° 0.3 mm 1 mps 746 mmHg 87%
    20:00 +10°C° 0.3 mm 1 mps 746 mmHg 88%
    21:00 +10°C° 0.5 mm 1 mps 746 mmHg 88%
    22:00 +10°C° 0.5 mm 1 mps 746 mmHg 88%
    23:00 +10°C° 0.5 mm 1 mps 746 mmHg 88%
    Show more